TimeMDT,TemperatureF,Dew PointF,Humidity,Sea Level PressureIn,VisibilityMPH,Wind Direction,Wind SpeedMPH,Gust SpeedMPH,PrecipitationIn,Events,Conditions,WindDirDegrees,DateUTC
12:53 AM,36.0,15.1,43,29.97,10.0,Calm,Calm,-,N/A,,Clear,0,2012-03-27 06:53:00
1:53 AM,30.9,17.1,57,30.01,10.0,SSE,3.5,-,N/A,,Clear,160,2012-03-27 07:53:00
2:53 AM,32.0,16.0,52,30.01,10.0,East,3.5,-,N/A,,Clear,100,2012-03-27 08:53:00
3:53 AM,30.9,15.1,52,30.02,10.0,Calm,Calm,-,N/A,,Clear,0,2012-03-27 09:53:00
4:53 AM,28.9,16.0,58,30.04,10.0,Calm,Calm,-,N/A,,Clear,0,2012-03-27 10:53:00
5:53 AM,28.0,16.0,61,30.08,10.0,Calm,Calm,-,N/A,,Clear,0,2012-03-27 11:53:00
6:53 AM,26.1,15.1,63,30.11,10.0,ESE,3.5,-,N/A,,Clear,120,2012-03-27 12:53:00
7:53 AM,28.0,17.1,63,30.13,10.0,Calm,Calm,-,N/A,,Clear,0,2012-03-27 13:53:00
8:53 AM,34.0,18.0,52,30.12,10.0,Calm,Calm,-,N/A,,Clear,0,2012-03-27 14:53:00
10:53 AM,48.9,17.1,28,30.09,10.0,Calm,Calm,-,N/A,,Clear,0,2012-03-27 16:53:00
11:53 AM,54.0,17.1,23,30.06,10.0,West,5.8,-,N/A,,Clear,260,2012-03-27 17:53:00
12:53 PM,57.9,16.0,19,30.02,10.0,West,4.6,-,N/A,,Clear,270,2012-03-27 18:53:00
1:53 PM,61.0,19.0,20,30.00,10.0,Variable,5.8,-,N/A,,Clear,0,2012-03-27 19:53:00
2:53 PM,62.1,17.1,18,29.97,10.0,West,8.1,-,N/A,,Clear,260,2012-03-27 20:53:00
3:53 PM,63.0,15.1,16,29.96,10.0,West,10.4,-,N/A,,Clear,270,2012-03-27 21:53:00
4:53 PM,64.0,17.1,16,29.95,10.0,West,17.3,-,N/A,,Clear,280,2012-03-27 22:53:00
5:53 PM,63.0,17.1,17,29.95,10.0,West,13.8,-,N/A,,Clear,270,2012-03-27 23:53:00
6:53 PM,60.1,18.0,20,29.96,10.0,West,8.1,-,N/A,,Clear,270,2012-03-28 00:53:00
7:53 PM,54.0,18.0,24,29.99,10.0,SSW,3.5,-,N/A,,Clear,200,2012-03-28 01:53:00
8:53 PM,48.0,21.0,34,30.01,10.0,South,6.9,-,N/A,,Clear,170,2012-03-28 02:53:00
9:53 PM,46.9,21.0,36,30.01,10.0,ESE,6.9,-,N/A,,Clear,110,2012-03-28 03:53:00
10:53 PM,46.0,23.0,40,29.99,10.0,Calm,Calm,-,N/A,,Clear,0,2012-03-28 04:53:00
11:53 PM,45.0,24.1,44,29.98,10.0,Calm,Calm,-,N/A,,Clear,0,2012-03-28 05:53:00